• în Republica Moldova
  • Lista ţărilor
  • Pe 7 zile
  • Temperatura apei
  • Hartă satelitară
  • Meteo pe hartă
  • Widget-uri
  • user-avatar
    Intrare

    Meteo pe oră la Annaba

    Astăzi, 27 Iunie, Marţi

    Timp Temperatura Precipitaţii Vânt Presiune Umiditate
    00:00 +29°C° 0 mm 3 m/s 757 mmHg 51%
    01:00 +29°C° 0 mm 3 m/s 757 mmHg 51%
    02:00 +29°C° 0 mm 2 m/s 757 mmHg 51%
    03:00 +29°C° 0 mm 2 m/s 757 mmHg 50%
    04:00 +29°C° 0 mm 2 m/s 757 mmHg 50%
    05:00 +30°C° 0 mm 1 m/s 757 mmHg 49%
    06:00 +31°C° 0 mm 1 m/s 757 mmHg 47%
    07:00 +32°C° 0 mm 1 m/s 757 mmHg 46%
    08:00 +35°C° 0 mm 1 m/s 757 mmHg 40%
    09:00 +37°C° 0 mm 1 m/s 757 mmHg 34%
    10:00 +40°C° 0 mm 1 m/s 757 mmHg 28%
    11:00 +41°C° 0 mm 2 m/s 757 mmHg 26%
    12:00 +43°C° 0 mm 3 m/s 756 mmHg 24%
    13:00 +44°C° 0 mm 3 m/s 756 mmHg 24%
    14:00 +44°C° 0 mm 4 m/s 756 mmHg 24%
    15:00 +43°C° 0 mm 4 m/s 756 mmHg 24%
    16:00 +43°C° 0 mm 5 m/s 756 mmHg 25%
    17:00 +42°C° 0 mm 4 m/s 756 mmHg 28%
    18:00 +40°C° 0 mm 4 m/s 756 mmHg 32%
    19:00 +37°C° 0 mm 3 m/s 756 mmHg 36%
    20:00 +36°C° 0,1 mm 3 m/s 756 mmHg 40%
    21:00 +34°C° 0,1 mm 3 m/s 756 mmHg 45%
    22:00 +32°C° 0,1 mm 2 m/s 757 mmHg 49%
    23:00 +31°C° 0,2 mm 3 m/s 757 mmHg 50%

    Mâine, 28 Iunie, Miercuri

    Timp Temperatura Precipitaţii Vânt Presiune Umiditate
    00:00 +31°C° 0,2 mm 3 m/s 756 mmHg 52%
    01:00 +30°C° 0,2 mm 4 m/s 756 mmHg 53%
    02:00 +30°C° 0 mm 4 m/s 756 mmHg 52%
    03:00 +30°C° 0 mm 4 m/s 756 mmHg 50%
    04:00 +30°C° 0 mm 4 m/s 755 mmHg 48%
    05:00 +32°C° 0 mm 4 m/s 755 mmHg 46%
    06:00 +33°C° 0 mm 4 m/s 755 mmHg 44%
    07:00 +34°C° 0 mm 4 m/s 755 mmHg 42%
    08:00 +35°C° 0 mm 5 m/s 755 mmHg 39%
    09:00 +36°C° 0 mm 5 m/s 755 mmHg 37%
    10:00 +38°C° 0 mm 6 m/s 756 mmHg 34%
    11:00 +39°C° 0 mm 7 m/s 755 mmHg 34%
    12:00 +39°C° 0 mm 7 m/s 755 mmHg 34%
    13:00 +39°C° 0 mm 7 m/s 755 mmHg 34%
    14:00 +38°C° 0 mm 7 m/s 755 mmHg 37%
    15:00 +36°C° 0 mm 6 m/s 755 mmHg 40%
    16:00 +35°C° 0 mm 6 m/s 755 mmHg 43%
    17:00 +34°C° 0 mm 5 m/s 755 mmHg 46%
    18:00 +33°C° 0 mm 5 m/s 755 mmHg 49%
    19:00 +30°C° 0 mm 4 m/s 756 mmHg 52%
    20:00 +29°C° 0 mm 3 m/s 756 mmHg 56%
    21:00 +28°C° 0 mm 3 m/s 757 mmHg 61%
    22:00 +26°C° 0 mm 2 m/s 757 mmHg 65%
    23:00 +26°C° 0 mm 2 m/s 757 mmHg 65%

    Poimâine, 29 Iunie, Joi

    Timp Temperatura Precipitaţii Vânt Presiune Umiditate
    00:00 +26°C° 0 mm 3 m/s 757 mmHg 66%
    01:00 +25°C° 0 mm 3 m/s 757 mmHg 66%
    02:00 +25°C° 0 mm 3 m/s 757 mmHg 65%
    03:00 +25°C° 0 mm 3 m/s 756 mmHg 64%
    04:00 +24°C° 0 mm 3 m/s 756 mmHg 63%
    05:00 +26°C° 0 mm 2 m/s 756 mmHg 58%
    06:00 +27°C° 0 mm 2 m/s 757 mmHg 52%
    07:00 +29°C° 0 mm 2 m/s 757 mmHg 47%
    08:00 +30°C° 0 mm 2 m/s 757 mmHg 42%
    09:00 +32°C° 0 mm 2 m/s 757 mmHg 37%
    10:00 +34°C° 0 mm 3 m/s 757 mmHg 32%
    11:00 +35°C° 0 mm 3 m/s 756 mmHg 31%
    12:00 +37°C° 0 mm 4 m/s 756 mmHg 30%
    13:00 +39°C° 0 mm 5 m/s 756 mmHg 30%
    14:00 +37°C° 0 mm 5 m/s 756 mmHg 34%
    15:00 +36°C° 0 mm 5 m/s 755 mmHg 37%
    16:00 +35°C° 0 mm 5 m/s 755 mmHg 41%
    17:00 +33°C° 0 mm 4 m/s 755 mmHg 47%
    18:00 +32°C° 0 mm 4 m/s 756 mmHg 52%
    19:00 +29°C° 0 mm 3 m/s 756 mmHg 57%
    20:00 +28°C° 0 mm 2 m/s 757 mmHg 64%
    21:00 +27°C° 0 mm 1 m/s 757 mmHg 71%
    22:00 +23°C° 0 mm 0 m/s 758 mmHg 78%
    23:00 +23°C° 0 mm 0 m/s 758 mmHg 80%

    30 Iunie, Vineri

    Timp Temperatura Precipitaţii Vânt Presiune Umiditate
    00:00 +22°C° 0 mm 0 m/s 758 mmHg 82%
    01:00 +21°C° 0 mm 0 m/s 757 mmHg 84%
    02:00 +21°C° 0 mm 0 m/s 757 mmHg 84%
    03:00 +21°C° 0 mm 0 m/s 757 mmHg 83%
    04:00 +20°C° 0 mm 0 m/s 756 mmHg 83%
    05:00 +24°C° 0 mm 1 m/s 756 mmHg 76%
    06:00 +25°C° 0 mm 1 m/s 756 mmHg 69%
    07:00 +27°C° 0 mm 1 m/s 756 mmHg 63%
    08:00 +29°C° 0 mm 2 m/s 756 mmHg 57%
    09:00 +31°C° 0 mm 2 m/s 756 mmHg 51%
    10:00 +34°C° 0 mm 3 m/s 756 mmHg 46%
    11:00 +35°C° 0 mm 4 m/s 755 mmHg 44%
    12:00 +36°C° 0 mm 5 m/s 755 mmHg 43%
    13:00 +37°C° 0 mm 5 m/s 755 mmHg 41%
    14:00 +35°C° 0 mm 5 m/s 755 mmHg 48%
    15:00 +33°C° 0 mm 5 m/s 755 mmHg 55%
    16:00 +32°C° 0 mm 5 m/s 755 mmHg 61%
    17:00 +30°C° 0 mm 4 m/s 756 mmHg 64%
    18:00 +29°C° 0 mm 4 m/s 756 mmHg 66%
    19:00 +28°C° 0 mm 4 m/s 757 mmHg 69%
    20:00 +27°C° 0 mm 4 m/s 757 mmHg 73%
    21:00 +27°C° 0 mm 3 m/s 758 mmHg 77%
    22:00 +26°C° 0 mm 3 m/s 759 mmHg 81%
    23:00 +26°C° 0,1 mm 3 m/s 759 mmHg 83%

    1 Iulie, Sâmbătă

    Timp Temperatura Precipitaţii Vânt Presiune Umiditate
    00:00 +25°C° 0,1 mm 2 m/s 759 mmHg 84%
    01:00 +25°C° 0,1 mm 2 m/s 759 mmHg 85%
    02:00 +25°C° 0,1 mm 2 m/s 759 mmHg 86%
    03:00 +25°C° 0,1 mm 1 m/s 759 mmHg 88%
    04:00 +24°C° 0,1 mm 1 m/s 759 mmHg 89%
    05:00 +25°C° 0,1 mm 1 m/s 759 mmHg 86%
    06:00 +25°C° 0,1 mm 1 m/s 759 mmHg 84%
    07:00 +25°C° 0,1 mm 2 m/s 759 mmHg 81%
    08:00 +27°C° 0,2 mm 2 m/s 760 mmHg 74%
    09:00 +28°C° 0,2 mm 3 m/s 760 mmHg 67%
    10:00 +29°C° 0,2 mm 4 m/s 760 mmHg 60%
    11:00 +29°C° 0,1 mm 4 m/s 760 mmHg 59%
    12:00 +29°C° 0,1 mm 4 m/s 760 mmHg 58%
    13:00 +29°C° 0,1 mm 4 m/s 760 mmHg 57%
    14:00 +29°C° 0 mm 4 m/s 760 mmHg 55%
    15:00 +29°C° 0 mm 4 m/s 760 mmHg 52%
    16:00 +30°C° 0 mm 4 m/s 760 mmHg 49%
    17:00 +29°C° 0 mm 5 m/s 760 mmHg 51%
    18:00 +28°C° 0 mm 5 m/s 761 mmHg 53%
    19:00 +27°C° 0 mm 5 m/s 761 mmHg 55%
    20:00 +26°C° 0 mm 5 m/s 761 mmHg 62%
    21:00 +23°C° 0 mm 4 m/s 762 mmHg 68%
    22:00 +22°C° 0 mm 3 m/s 762 mmHg 74%
    23:00 +22°C° 0 mm 3 m/s 762 mmHg 76%

    2 Iulie, Duminică

    Timp Temperatura Precipitaţii Vânt Presiune Umiditate
    00:00 +21°C° 0 mm 3 m/s 762 mmHg 77%
    01:00 +21°C° 0 mm 3 m/s 762 mmHg 79%
    02:00 +21°C° 0 mm 3 m/s 762 mmHg 80%
    03:00 +20°C° 0 mm 3 m/s 762 mmHg 81%
    04:00 +20°C° 0 mm 3 m/s 762 mmHg 83%
    05:00 +21°C° 0 mm 3 m/s 762 mmHg 78%
    06:00 +22°C° 0 mm 3 m/s 762 mmHg 72%
    07:00 +24°C° 0 mm 3 m/s 762 mmHg 67%
    08:00 +25°C° 0 mm 4 m/s 763 mmHg 62%
    09:00 +27°C° 0 mm 4 m/s 763 mmHg 57%
    10:00 +28°C° 0 mm 4 m/s 763 mmHg 52%
    11:00 +29°C° 0 mm 5 m/s 762 mmHg 49%
    12:00 +30°C° 0 mm 5 m/s 762 mmHg 46%
    13:00 +30°C° 0 mm 6 m/s 762 mmHg 44%
    14:00 +30°C° 0 mm 6 m/s 762 mmHg 43%
    15:00 +30°C° 0 mm 7 m/s 762 mmHg 43%
    16:00 +30°C° 0 mm 7 m/s 762 mmHg 43%
    17:00 +29°C° 0 mm 7 m/s 762 mmHg 49%
    18:00 +28°C° 0 mm 6 m/s 762 mmHg 55%
    19:00 +26°C° 0 mm 6 m/s 762 mmHg 60%
    20:00 +24°C° 0 mm 6 m/s 763 mmHg 68%
    21:00 +23°C° 0 mm 5 m/s 763 mmHg 76%
    22:00 +22°C° 0 mm 5 m/s 763 mmHg 83%
    23:00 +22°C° 0 mm 5 m/s 763 mmHg 83%
    Arată mai mult